Location: Pordenone
(45.9640°N, 12.6580°E)
Time: 17:33:19
(UTC+02:00)

ISS - Pass Details

Date: 15 May 2021
Orbit: 417 x 422 km, 51.6° (Epoch: 18 June)

Event Time Altitude Azimuth Distance (km) Brightness Sun altitude
Rises 03:39:04 0° 297° (WNW) 2,375 0.0 -16.5°
Reaches altitude 10° 03:41:10 10° 298° (WNW) 1,509 -1.0 -16.2°
Maximum altitude 03:44:34 89° 30° (NNE) 427 -3.8 -15.9°
Drops below altitude 10° 03:47:57 10° 118° (ESE) 1,504 -0.8 -15.5°
Sets 03:50:03 0° 119° (ESE) 2,366 0.2 -15.3°
